E23XBQ-1 Weather Reports


Display with metric or nautical units.
time (UTC)temp
F
wind
direction
speed
MPH
gust
MPH
rain 1hr
in
rain 24hr
in
rain mn
in
humidity
%
barometer
mb
20260504205159 76 0 0.0 0.0 0.00 0.00 0.00 99 973.0
20260504204135 76 0 0.0 0.0 0.00 0.00 0.00 99 973.0
20260504203109 77 0 0.0 0.0 0.00 0.00 0.00 99 973.0
20260504202044 77 0 0.0 0.0 0.00 0.00 0.00 99 974.0
20260504201020 77 0 0.0 0.0 0.00 0.00 0.00 99 974.0
20260504195955 77 0 0.0 0.0 0.00 0.00 0.00 99 974.0
20260504194930 77 0 0.0 0.0 0.00 0.00 0.00 99 974.0
20260504193906 77 0 0.0 0.0 0.00 0.00 0.00 99 974.0
20260504192841 77 0 0.0 0.0 0.00 0.00 0.00 99 974.0
20260504191847 77 0 0.0 0.0 0.00 0.00 0.00 99 974.0
20260504191816 77 0 0.0 0.0 0.00 0.00 0.00 99 974.0
20260504190752 78 0 0.0 0.0 0.00 0.00 0.00 99 974.0
20260504185728 78 0 0.0 0.0 0.00 0.00 0.00 99 974.0
20260504184704 78 0 0.0 0.0 0.00 0.00 0.00 99 974.0
20260504183639 77 0 0.0 0.0 0.00 0.00 0.00 99 974.0
20260504182614 78 0 0.0 0.0 0.00 0.00 0.00 99 974.0
20260504181550 78 0 0.0 0.0 0.00 0.00 0.00 99 974.0
20260504180525 78 0 0.0 0.0 0.00 0.00 0.00 99 975.0
20260504175500 77 0 0.0 0.0 0.00 0.00 0.00 99 974.0
20260504174435 78 0 0.0 0.0 0.00 0.00 0.00 99 974.0
20260504173411 78 0 0.0 0.0 0.00 0.00 0.00 99 974.0
20260504172346 77 0 0.0 0.0 0.00 0.00 0.00 99 974.0
20260504171321 77 0 0.0 0.0 0.00 0.00 0.00 99 974.0
20260504170256 78 0 0.0 0.0 0.00 0.00 0.00 99 974.0
20260504150825 78 0 0.0 0.0 0.00 0.00 0.00 99 972.0
20260504140557 78 0 0.0 0.0 0.00 0.00 0.00 98 972.0
20260504130307 79 0 0.0 0.0 0.00 0.00 0.00 83 971.0
20260504100606 97 0 0.0 0.0 0.00 0.00 0.00 36 968.0
20260504081130 101 0 0.0 0.0 0.00 0.00 0.00 29 969.0
20260504080106 105 0 0.0 0.0 0.00 0.00 0.00 30 969.0
20260504050349 71 0 0.0 0.0 0.00 0.00 0.00 87 714.0
20260504045324 71 0 0.0 0.0 0.00 0.00 0.00 87 714.0
20260504044259 71 0 0.0 0.0 0.00 0.00 0.00 87 714.0
20260504043233 71 0 0.0 0.0 0.00 0.00 0.00 87 714.0
20260504042209 71 0 0.0 0.0 0.00 0.00 0.00 87 714.0
20260504041145 71 0 0.0 0.0 0.00 0.00 0.00 87 714.0
20260504040120 71 0 0.0 0.0 0.00 0.00 0.00 87 714.0
20260504035055 71 0 0.0 0.0 0.00 0.00 0.00 87 714.0
20260504034031 71 0 0.0 0.0 0.00 0.00 0.00 87 714.0
20260504033006 71 0 0.0 0.0 0.00 0.00 0.00 87 714.0
20260504031942 71 0 0.0 0.0 0.00 0.00 0.00 87 714.0
20260504030918 71 0 0.0 0.0 0.00 0.00 0.00 87 714.0
20260504025852 71 0 0.0 0.0 0.00 0.00 0.00 87 714.0
20260504024827 71 0 0.0 0.0 0.00 0.00 0.00 87 714.0
20260504023802 71 0 0.0 0.0 0.00 0.00 0.00 87 714.0
20260504022738 71 0 0.0 0.0 0.00 0.00 0.00 87 714.0
20260504021713 71 0 0.0 0.0 0.00 0.00 0.00 87 714.0
20260504020648 71 0 0.0 0.0 0.00 0.00 0.00 87 714.0
20260504015624 71 0 0.0 0.0 0.00 0.00 0.00 87 714.0
20260504014600 71 0 0.0 0.0 0.00 0.00 0.00 87 714.0
20260504013535 71 0 0.0 0.0 0.00 0.00 0.00 87 714.0
20260504012510 71 0 0.0 0.0 0.00 0.00 0.00 87 714.0
20260504011446 71 0 0.0 0.0 0.00 0.00 0.00 87 714.0
20260504010421 71 0 0.0 0.0 0.00 0.00 0.00 87 714.0
20260504005356 71 0 0.0 0.0 0.00 0.00 0.00 87 714.0
20260504004330 71 0 0.0 0.0 0.00 0.00 0.00 87 714.0
20260504003308 71 0 0.0 0.0 0.00 0.00 0.00 87 714.0
20260504002242 71 0 0.0 0.0 0.00 0.00 0.00 87 714.0
20260504001217 71 0 0.0 0.0 0.00 0.00 0.00 87 714.0
20260504000151 71 0 0.0 0.0 0.00 0.00 0.00 87 714.0
20260503235122 71 0 0.0 0.0 0.00 0.00 0.00 87 714.0
20260503234047 71 0 0.0 0.0 0.00 0.00 0.00 87 714.0
20260503233027 71 0 0.0 0.0 0.00 0.00 0.00
20260503233023 71 0 0.0 0.0 0.00 0.00 0.00 87 714.0
20260503231957 71 0 0.0 0.0 0.00 0.00 0.00 87 714.0
20260503230932 71 0 0.0 0.0 0.00 0.00 0.00 87 714.0
20260503225908 71 0 0.0 0.0 0.00 0.00 0.00 87 714.0
20260503224843 71 0 0.0 0.0 0.00 0.00 0.00 87 714.0
20260503223818 71 0 0.0 0.0 0.00 0.00 0.00 87 714.0
20260503222753 71 0 0.0 0.0 0.00 0.00 0.00 87 714.0
20260503221727 71 0 0.0 0.0 0.00 0.00 0.00 87 714.0
20260503220656 71 0 0.0 0.0 0.00 0.00 0.00 87 714.0
20260503215625 71 0 0.0 0.0 0.00 0.00 0.00 87 714.0
20260503214558 71 0 0.0 0.0 0.00 0.00 0.00 87 714.0
20260503213533 71 0 0.0 0.0 0.00 0.00 0.00 87 714.0
20260503212509 71 0 0.0 0.0 0.00 0.00 0.00 87 714.0
20260503211443 71 0 0.0 0.0 0.00 0.00 0.00 87 714.0
20260503210418 71 0 0.0 0.0 0.00 0.00 0.00 87 714.0